EDT,Max TemperatureF,Mean TemperatureF,Min TemperatureF,Max Dew PointF,MeanDew PointF,Min DewpointF,Max Humidity, Mean Humidity, Min Humidity, Max Sea Level PressureIn, Mean Sea Level PressureIn, Min Sea Level PressureIn, Max VisibilityMiles, Mean VisibilityMiles, Min VisibilityMiles, Max Wind SpeedMPH, Mean Wind SpeedMPH, Max Gust SpeedMPH,PrecipitationIn, CloudCover, Events, WindDirDegrees
2013-8-1,81,73,65,68,65,61,100,79,58,30.03,29.98,29.94,10,5,0,10,1,17,0.01,5,Fog,289
2013-8-2,81,71,60,65,62,57,100,74,48,30.07,30.03,29.99,10,8,1,7,0,12,0.00,0,,-1
2013-8-3,83,74,65,70,67,63,97,80,62,30.05,30.01,29.95,10,7,0,8,1,16,0.13,4,Fog-Rain-Thunderstorm,270
2013-8-4,78,71,63,68,64,56,100,74,47,30.12,30.07,30.01,10,5,0,10,3,16,0.00,6,Fog,310
2013-8-5,78,69,59,59,57,54,84,67,50,30.11,30.06,29.98,10,10,10,5,0,8,0.00,1,,-1
2013-8-6,82,73,64,68,63,58,87,75,62,30.01,29.98,29.95,10,10,10,5,1,8,0.00,6,,140
2013-8-7,80,75,70,73,70,68,97,90,82,30.05,29.99,29.92,10,8,2,6,1,12,0.09,7,Rain-Thunderstorm,147
2013-8-8,82,77,71,74,71,70,100,90,79,30.06,30.00,29.94,10,6,1,7,1,15,0.53,6,Rain,190
2013-8-9,85,78,70,74,70,68,100,85,69,30.10,30.03,29.96,10,5,1,16,2,25,0.54,6,Rain-Thunderstorm,264
2013-8-10,81,75,69,73,70,68,100,87,74,30.17,30.10,30.04,10,4,0,6,0,10,0.76,7,Fog-Rain-Thunderstorm,163
2013-8-11,81,75,68,74,70,68,100,90,79,30.16,30.12,30.04,10,4,0,13,1,22,1.62,7,Fog-Rain-Thunderstorm,304
2013-8-12,77,72,67,73,70,66,100,91,82,30.13,30.05,29.94,10,3,0,12,1,23,2.40,7,Fog-Rain-Thunderstorm,218
2013-8-13,78,71,63,70,67,62,100,87,74,30.00,29.94,29.89,10,4,0,12,1,16,1.19,7,Fog-Rain,300
2013-8-14,72,64,55,60,53,50,93,73,53,30.14,30.08,30.00,10,10,10,6,0,10,0.00,2,,-1
2013-8-15,75,64,52,60,54,50,96,73,49,30.14,30.11,30.06,10,10,10,6,0,10,0.00,0,,-1
2013-8-16,80,69,57,64,59,54,93,76,58,30.12,30.10,30.06,10,10,10,6,0,10,0.00,1,,-1
2013-8-17,75,68,61,62,59,57,97,81,64,30.17,30.13,30.10,10,10,8,5,0,13,0.00,0,,-1
2013-8-18,74,69,63,67,64,60,100,87,73,30.22,30.18,30.11,10,6,0,7,1,12,0.17,7,Fog-Rain,296
2013-8-19,80,73,66,69,66,64,100,81,62,30.19,30.15,30.07,10,8,0,6,0,9,T,6,Fog-Rain,313
2013-8-20,83,74,65,70,66,64,100,81,62,30.21,30.14,30.09,10,8,2,6,0,10,0.00,2,,115
2013-8-21,83,73,62,72,66,59,100,83,65,30.24,30.18,30.12,10,6,0,26,1,43,0.82,4,Fog-Rain-Thunderstorm,271
2013-8-22,82,74,65,72,68,64,100,85,69,30.20,30.14,30.06,10,7,0,10,0,15,0.85,4,Fog-Rain-Thunderstorm,70
2013-8-23,83,75,67,70,67,64,97,76,55,30.13,30.08,30.02,10,5,0,8,0,12,0.00,4,Fog-Thunderstorm,292
2013-8-24,81,72,63,66,62,56,100,71,42,30.29,30.21,30.12,10,9,2,7,1,12,0.00,0,,115
2013-8-25,82,72,61,65,59,55,90,69,47,30.36,30.30,30.26,10,10,10,7,3,12,0.00,0,,135
2013-8-26,85,74,62,67,63,57,93,74,55,30.30,30.22,30.13,10,10,10,8,1,12,0.00,0,,240
2013-8-27,86,76,66,71,68,64,93,77,61,30.16,30.09,30.02,10,8,5,7,1,10,0.00,1,,303
2013-8-28,88,80,71,74,71,69,93,74,55,30.06,30.01,29.92,10,6,1,9,2,17,0.07,5,Rain,-1
2013-8-29,85,79,72,72,70,68,93,76,59,30.07,30.00,29.94,10,8,2,7,1,10,0.00,5,,274
2013-8-30,86,77,67,70,68,65,100,78,55,30.05,29.98,29.89,10,5,0,7,1,10,0.00,2,Fog,300
2013-8-31,84,76,67,73,67,64,93,86,79,30.02,29.93,29.83,10,6,0,13,2,21,0.86,4,Fog-Rain-Thunderstorm,285